Location: Caltech
(34.1382°N, 118.1253°W)
Time: 19:04:03
(UTC-07:00)

ALOS - Visible Passes

Search period start: 27 April 2015 00:00
Search period end: 07 May 2015 00:00
Orbit: 687 x 688 km, 97.9° (Epoch: 26 April)

Date Brightness Start Highest point End Pass type
(mag) Time Alt. Az. Time Alt. Az. Time Alt. Az.
27 Apr 2.1 21:20:55 44° SSE 21:22:26 83° ENE 21:27:08 10° N visible
28 Apr 3.8 20:20:46 12° ESE 20:23:18 19° ENE 20:26:37 10° NNE visible
28 Apr 3.5 21:59:20 31° SW 22:00:33 36° W 22:04:51 10° NNW visible
29 Apr 2.6 20:59:11 29° SE 21:01:09 47° ENE 21:05:39 10° N visible
29 Apr 4.8 22:37:45 13° WSW 22:38:57 14° W 22:41:10 10° WNW visible
30 Apr 4.3 20:00:56 10° E 20:02:08 11° ENE 20:03:38 10° NE visible
30 Apr 2.6 21:37:37 40° SSW 21:39:09 63° W 21:43:47 10° NNW visible
01 May 3.3 20:37:27 18° ESE 20:39:54 28° ENE 20:43:55 10° NNE visible
01 May 4.1 22:16:01 21° WSW 22:17:23 23° W 22:21:04 10° NW visible
02 May 2.2 21:15:52 35° SSE 21:17:48 75° ENE 21:22:29 10° N visible
03 May 3.9 20:15:48 10° ESE 20:18:41 17° ENE 20:21:46 10° NNE visible
03 May 3.3 21:54:16 30° SW 21:55:54 40° W 22:00:17 10° NNW visible
04 May 2.7 20:54:07 23° SE 20:56:31 42° ENE 21:00:57 10° N visible
04 May 4.7 22:32:41 14° WSW 22:34:15 15° W 22:36:52 10° WNW visible
05 May 2.4 21:32:32 34° S 21:34:29 71° WSW 21:39:10 10° NNW visible
06 May 3.5 20:32:22 14° ESE 20:35:15 25° ENE 20:39:07 10° NNE visible
06 May 4.0 22:10:55 21° SW 22:12:41 26° W 22:16:33 10° NW visible
